Regional Weather Roundup
Issued by NWS

Home | Current Version | Previous Version | Graphics & Text | Print | Product List | Glossary On
Versions: 1 2 3 4 5 6 7 8 9 10 11 12 13 14 15 16 17 18 19 20 21 22 23 24 25 26 27 28 29 30 31 32 33 34 35 36 37 38 39 40 41 42 43 44 45 46 47 48 49 50
000
ASUS43 KFSD 220802
RWRSD

WEATHER ROUNDUP FOR SOUTH DAKOTA
NATIONAL WEATHER SERVICE SIOUX FALLS SD
300 AM CDT MON SEP 22 2014

NOTE: "FAIR" INDICATES FEW OR NO CLOUDS BELOW 12,000 FEET WITH NO
SIGNIFICANT WEATHER AND/OR OBSTRUCTIONS TO VISIBILITY.


SDZ001>005-009-010-012>017-220900-
NORTHWEST AND NORTH CENTRAL SOUTH DAKOTA

CITY           SKY/WX    TMP DP  RH WIND       PRES   REMARKS
FAITH            N/A     48  40  73 S16       30.18F
MOBRIDGE       CLEAR     47  46  97 SE7       30.19S
$$

SDZ012>016-024>037-041>051-057-063-072>074-220900-
SOUTHWEST AND SOUTH CENTRAL SOUTH DAKOTA

CITY           SKY/WX    TMP DP  RH WIND       PRES   REMARKS
RAPID CTY ARPT MOCLDY    52  38  58 SE12      30.19F
PIERRE         CLEAR     47  42  83 SE7       30.21F
CUSTER         CLEAR     43  34  70 CALM      30.29S
ELLSWORTH AFB  MOCLDY    54  38  54 SE7       30.18F
PHILIP         PTCLDY    50  39  66 VRB5      30.21F
PINE RIDGE     PTCLDY    62  36  37 S23G29    30.21F
WINNER         FAIR      49  42  77 S9        30.25F
$$

SDZ004>011-016>023-039-040-220900-
NORTHEAST SOUTH DAKOTA

CITY           SKY/WX    TMP DP  RH WIND       PRES   REMARKS
ABERDEEN       CLEAR     42  40  92 S7        30.23F
WATERTOWN      CLEAR     45  43  93 SE5       30.24F
SISSETON         N/A     45  44  97 SW6       30.21S
$$

SDZ017-020-022-023-036>040-048>070-220900-
SOUTHEAST SOUTH DAKOTA

CITY           SKY/WX    TMP DP  RH WIND       PRES   REMARKS
SIOUX FALLS    CLEAR     46  44  93 CALM      30.28R
HURON          CLEAR     50  44  80 S6        30.24F
CHAMBERLAIN    CLEAR     45  42  89 SE5       30.26S
MITCHELL       CLEAR     51  45  79 S6        30.27S
YANKTON        CLEAR     45  39  81 CALM      30.29S
$$

ABBREVIATIONS USED IN REMARKS
   TC - TEMPERATURE IN CELSIUS
  WCI - WIND CHILL INDEX
   HX - HEAT INDEX
  VSB - VISIBILITY



USA.gov is the U.S. government's official web portal to all federal, state and local government web resources and services.